Weather History for Port Heiden, AK

Change the Weather History Date:

Thursday, April 10, 2014

  Actual Average Record
Temperature  
Mean Temperature 32 °F -  
Max Temperature 44 °F 36 °F 48 °F (2001)
Min Temperature 19 °F 26 °F 12 °F (2013)
Degree Days  
Heating Degree Days 34    
Moisture  
Dew Point 18 °F    
Average Humidity 53    
Maximum Humidity 74    
Minimum Humidity 29    
Precipitation  
Precipitation 0.00 in - - ()
Sea Level Pressure  
Sea Level Pressure 29.90 in    
Wind  
Wind Speed 9 mph (ESE)    
Max Wind Speed 17 mph    
Max Gust Speed 22 mph    
Visibility 10 miles    
Events      
Averages and records for this station are not official NWS values.
T = Trace of Precipitation, MM = Missing Value Source: NWS Daily Summary

Daily Weather History Graph

Daily Weather History Graph

Search for Another Location

Airport:

Trip Planner

Search our weather history database for the weather conditions in past years. The results will help you decide how hot, cold, wet, or windy it might be!

Date:

Astronomy

Apr. 10, 2014 Rise Set
Actual Time 7:39 AM AKDT 9:33 PM AKDT
Civil Twilight 6:58 AM AKDT 10:14 PM AKDT
Nautical Twilight 6:07 AM AKDT 11:06 PM AKDT
Astronomical Twilight 5:07 AM AKDT 12:07 AM AKDT
Moon 4:43 PM AKDT (4/10) 5:57 AM AKDT (4/10)
Length of Visible Light 15h 15m
Length of Day
13h 54m
Waxing Gibbous, 81% of the Moon is Illuminated
Apr 10
Waxing Gibbous
Apr 14
Full
Apr 21
Last Quarter
Apr 28
New
May 6
First Quarter

Hourly Weather History & Observations

Time (AKDT) Temp. Windchill Dew Point Humidity Pressure Visibility Wind Dir Wind Speed Gust Speed Precip Events Conditions
12:16 AM 30.2 °F 25.4 °F 15.8 °F 55% 29.77 in 10.0 mi South 4.6 mph - N/A   Clear
12:36 AM 26.6 °F - 15.8 °F 64% 29.78 in 10.0 mi North - - N/A   Clear
12:56 AM 26.6 °F 21.2 °F 15.8 °F 64% 29.78 in 10.0 mi NNE 4.6 mph - N/A   Clear
1:16 AM 24.8 °F 19.1 °F 15.8 °F 69% 29.79 in 10.0 mi East 4.6 mph - N/A   Clear
1:36 AM 19.4 °F 11.5 °F 12.2 °F 74% 29.79 in 10.0 mi ENE 5.8 mph - N/A   Clear
1:56 AM 21.2 °F 13.6 °F 10.4 °F 63% 29.80 in 10.0 mi NE 5.8 mph - N/A   Clear
2:16 AM 21.2 °F 11.7 °F 12.2 °F 68% 29.80 in 10.0 mi ENE 8.1 mph - N/A   Clear
2:36 AM 24.8 °F 16.9 °F 10.4 °F 54% 29.80 in 10.0 mi East 6.9 mph - N/A   Clear
2:56 AM 26.6 °F 20.0 °F 15.8 °F 64% 29.80 in 10.0 mi East 5.8 mph - N/A   Clear
3:16 AM 26.6 °F 20.0 °F 15.8 °F 64% 29.80 in 10.0 mi East 5.8 mph - N/A   Clear
3:36 AM 24.8 °F 17.9 °F 15.8 °F 69% 29.81 in 10.0 mi East 5.8 mph - N/A   Clear
3:56 AM 26.6 °F 19.1 °F 17.6 °F 69% 29.81 in 10.0 mi East 6.9 mph - N/A   Clear
4:16 AM 24.8 °F 16.9 °F 14.0 °F 64% 29.81 in 10.0 mi ENE 6.9 mph - N/A   Clear
4:36 AM 24.8 °F 19.1 °F 12.2 °F 59% 29.81 in 10.0 mi East 4.6 mph - N/A   Clear
4:56 AM 23.0 °F 14.7 °F 12.2 °F 63% 29.81 in 10.0 mi ENE 6.9 mph - N/A   Clear
5:16 AM 21.2 °F 11.7 °F 10.4 °F 63% 29.82 in 10.0 mi East 8.1 mph - N/A   Clear
5:36 AM 21.2 °F 11.7 °F 10.4 °F 63% 29.82 in 10.0 mi ENE 8.1 mph - N/A   Clear
5:56 AM 23.0 °F 14.7 °F 10.4 °F 59% 29.82 in 10.0 mi ENE 6.9 mph - N/A   Clear
6:16 AM 21.2 °F 12.6 °F 12.2 °F 68% 29.83 in 10.0 mi ENE 6.9 mph - N/A   Clear
6:36 AM 21.2 °F 10.9 °F 8.6 °F 58% 29.83 in 10.0 mi East 9.2 mph - N/A   Clear
6:56 AM 21.2 °F 11.7 °F 12.2 °F 68% 29.83 in 10.0 mi East 8.1 mph - N/A   Clear
7:16 AM 21.2 °F 11.7 °F 12.2 °F 68% 29.84 in 10.0 mi East 8.1 mph - N/A   Clear
7:36 AM 23.0 °F 13.1 °F 12.2 °F 63% 29.84 in 10.0 mi ENE 9.2 mph - N/A   Clear
7:56 AM 24.8 °F 16.1 °F 12.2 °F 59% 29.85 in 10.0 mi East 8.1 mph - N/A   Clear
8:16 AM 26.6 °F 17.5 °F 15.8 °F 64% 29.85 in 10.0 mi East 9.2 mph - N/A   Clear
8:36 AM 24.8 °F 16.1 °F 14.0 °F 64% 29.86 in 10.0 mi East 8.1 mph - N/A   Clear
8:56 AM 26.6 °F 20.0 °F 15.8 °F 64% 29.87 in 10.0 mi East 5.8 mph - N/A   Clear
9:16 AM 28.4 °F 23.3 °F 17.6 °F 64% 29.87 in 10.0 mi East 4.6 mph - N/A   Clear
9:36 AM 32.0 °F 26.4 °F 17.6 °F 55% 29.87 in 10.0 mi East 5.8 mph - N/A   Clear
9:56 AM 33.8 °F 27.7 °F 17.6 °F 52% 29.88 in 10.0 mi East 6.9 mph - N/A   Clear
10:16 AM 35.6 °F 27.5 °F 19.4 °F 52% 29.88 in 10.0 mi ESE 11.5 mph - N/A   Clear
10:36 AM 35.6 °F 27.1 °F 19.4 °F 52% 29.89 in 10.0 mi ESE 12.7 mph - N/A   Clear
10:56 AM 37.4 °F 28.2 °F 19.4 °F 48% 29.90 in 10.0 mi ESE 16.1 mph - N/A   Clear
11:16 AM 37.4 °F 28.2 °F 19.4 °F 48% 29.91 in 10.0 mi ESE 16.1 mph - N/A   Clear
11:36 AM 37.4 °F 28.2 °F 19.4 °F 48% 29.91 in 10.0 mi ESE 16.1 mph - N/A   Clear
11:56 AM 39.2 °F 30.2 °F 19.4 °F 45% 29.92 in 10.0 mi ESE 17.3 mph - N/A   Clear
12:16 PM 39.2 °F 30.8 °F 19.4 °F 45% 29.93 in 10.0 mi ESE 15.0 mph 21.9 mph N/A   Clear
12:36 PM 39.2 °F 30.8 °F 19.4 °F 45% 29.93 in 10.0 mi ESE 15.0 mph - N/A   Clear
12:56 PM 39.2 °F 30.2 °F 19.4 °F 45% 29.93 in 10.0 mi ESE 17.3 mph - N/A   Clear
1:16 PM 41.0 °F 33.1 °F 19.4 °F 42% 29.94 in 10.0 mi ESE 15.0 mph 18.4 mph N/A   Clear
1:36 PM 41.0 °F 33.1 °F 21.2 °F 45% 29.94 in 10.0 mi ESE 15.0 mph 19.6 mph N/A   Clear
1:56 PM 42.8 °F 35.8 °F 19.4 °F 39% 29.94 in 10.0 mi ESE 13.8 mph 18.4 mph N/A   Clear
2:16 PM 42.8 °F 36.2 °F 21.2 °F 42% 29.95 in 10.0 mi ESE 12.7 mph - N/A   Clear
2:36 PM 42.8 °F 35.8 °F 23.0 °F 46% 29.95 in 10.0 mi ESE 13.8 mph - N/A   Clear
2:56 PM 42.8 °F 36.2 °F 21.2 °F 42% 29.95 in 10.0 mi ESE 12.7 mph - N/A   Clear
3:16 PM 42.8 °F 35.8 °F 21.2 °F 42% 29.95 in 10.0 mi East 13.8 mph - N/A   Clear
3:36 PM 42.8 °F 36.2 °F 21.2 °F 42% 29.95 in 10.0 mi SE 12.7 mph 18.4 mph N/A   Clear
3:56 PM 42.8 °F 37.0 °F 21.2 °F 42% 29.95 in 10.0 mi SE 10.4 mph 17.3 mph N/A   Partly Cloudy
4:16 PM 44.6 °F 38.1 °F 21.2 °F 39% 29.96 in 10.0 mi SSE 13.8 mph - N/A   Clear
4:36 PM 42.8 °F 35.8 °F 21.2 °F 42% 29.96 in 10.0 mi SE 13.8 mph - N/A   Clear
4:56 PM 42.8 °F 35.1 °F 21.2 °F 42% 29.96 in 10.0 mi SSE 16.1 mph 21.9 mph N/A   Clear
5:16 PM 44.6 °F 37.2 °F 21.2 °F 39% 29.96 in 10.0 mi SE 17.3 mph - N/A   Clear
5:36 PM 42.8 °F 34.8 °F 21.2 °F 42% 29.95 in 10.0 mi SE 17.3 mph - N/A   Clear
5:56 PM 42.8 °F 35.4 °F 21.2 °F 42% 29.94 in 10.0 mi SE 15.0 mph - N/A   Clear
6:16 PM 42.8 °F 35.8 °F 21.2 °F 42% 29.94 in 10.0 mi SE 13.8 mph - N/A   Clear
6:36 PM 44.6 °F 40.2 °F 21.2 °F 39% 29.94 in 10.0 mi SE 8.1 mph - N/A   Clear
6:56 PM 44.6 °F 39.7 °F 21.2 °F 39% 29.94 in 10.0 mi SE 9.2 mph - N/A   Clear
7:16 PM 42.8 °F 35.8 °F 21.2 °F 42% 29.95 in 10.0 mi SSE 13.8 mph - N/A   Clear
7:36 PM 42.8 °F 34.8 °F 21.2 °F 42% 29.95 in 10.0 mi SE 17.3 mph - N/A   Clear
7:56 PM 41.0 °F 32.8 °F 21.2 °F 45% 29.97 in 10.0 mi SE 16.1 mph - N/A   Clear
8:16 PM 39.2 °F 30.8 °F 21.2 °F 49% 29.97 in 10.0 mi SE 15.0 mph - N/A   Clear
8:36 PM 37.4 °F 28.9 °F 21.2 °F 52% 29.97 in 10.0 mi SE 13.8 mph - N/A   Clear
8:56 PM 37.4 °F 28.9 °F 21.2 °F 52% 29.97 in 10.0 mi SSE 13.8 mph - N/A   Clear
9:16 PM 35.6 °F 26.2 °F 21.2 °F 56% 29.98 in 10.0 mi SSE 15.0 mph - N/A   Clear
9:36 PM 33.8 °F 25.3 °F 21.2 °F 60% 29.98 in 10.0 mi SSE 11.5 mph - N/A   Clear
9:56 PM 33.8 °F 23.9 °F 21.2 °F 60% 29.99 in 10.0 mi SSE 15.0 mph - N/A   Clear
10:16 PM 33.8 °F 24.3 °F 21.2 °F 60% 30.01 in 10.0 mi SSE 13.8 mph - N/A   Clear
10:36 PM 33.8 °F 24.8 °F 21.2 °F 60% 30.02 in 10.0 mi SE 12.7 mph - N/A   Clear
10:56 PM 33.8 °F 28.6 °F 21.2 °F 60% 30.02 in 10.0 mi ESE 5.8 mph - N/A   Clear
11:16 PM 33.8 °F 25.3 °F 21.2 °F 60% 30.01 in 10.0 mi SE 11.5 mph - N/A   Clear
11:36 PM 33.8 °F 23.2 °F 21.2 °F 60% 30.00 in 10.0 mi SE 17.3 mph - N/A   Clear
11:56 PM 33.8 °F 23.5 °F 21.2 °F 60% 30.00 in 10.0 mi SE 16.1 mph - N/A   Clear